Location: Pasadena, ca
(34.1243°N, 118.1037°W)
Time: 01:41:39
(UTC-08:00)

OTV 5 (USA 277) - Visible Passes

Search period start: 25 November 2017 00:00
Search period end: 05 December 2017 00:00
Orbit: 404 x 417 km, 43.0° (Epoch: 07 September)

Date Brightness Start Highest point End Pass type
(mag) Time Alt. Az. Time Alt. Az. Time Alt. Az.
28 Nov ? 18:08:55 10° S 18:10:16 14° SSE 18:10:16 14° SSE visible
29 Nov ? 18:53:27 10° SW 18:54:42 21° SW 18:54:42 21° SW visible
30 Nov ? 18:02:35 10° SW 18:05:46 40° SE 18:06:17 37° ESE visible
01 Dec ? 17:12:01 10° SSW 17:14:48 24° SE 17:17:36 10° E visible
01 Dec ? 18:48:43 10° W 18:50:35 28° W 18:50:35 28° W visible
02 Dec ? 17:57:31 10° WSW 18:00:52 73° NNW 18:02:02 37° NE visible
03 Dec ? 17:06:28 10° SW 17:09:48 69° SSE 17:13:10 10° ENE visible
03 Dec ? 18:44:27 10° WNW 18:46:12 21° NW 18:46:12 21° NW visible
04 Dec ? 17:53:03 10° W 17:56:09 33° NNW 17:57:34 23° NNE visible
